When you browse on this site, cookies collect data to enhance your experience and personalize the content and advertising you see.
Visit our Privacy Policy to learn more. By continuing to use the site, you agree to this use of cookies and data.
  • In France
  • List of Countries
  • For 7 days
  • Water Temperature
  • Satellite Maps
  • Weather Map
  • Weather Widgets
  • user-avatar
    Login

    Hourly Weather Buenos Aires

    Today, 19 July, Friday

    Time Temperature Precipitation Wind Pressure Humidity
    00:00 +24°C° 0.3 mm 1 mps 716 mmHg 88%
    01:00 +24°C° 0.3 mm 1 mps 716 mmHg 89%
    02:00 +24°C° 0.3 mm 1 mps 716 mmHg 89%
    03:00 +23°C° 0.1 mm 1 mps 716 mmHg 89%
    04:00 +23°C° 0.1 mm 1 mps 715 mmHg 89%
    05:00 +23°C° 0.1 mm 1 mps 715 mmHg 89%
    06:00 +24°C° 0 mm 1 mps 716 mmHg 86%
    07:00 +25°C° 0 mm 1 mps 716 mmHg 84%
    08:00 +27°C° 0 mm 1 mps 717 mmHg 81%
    09:00 +28°C° 0.2 mm 1 mps 717 mmHg 77%
    10:00 +29°C° 0.2 mm 1 mps 716 mmHg 73%
    11:00 +31°C° 0.2 mm 1 mps 716 mmHg 68%
    12:00 +32°C° 0.4 mm 1 mps 716 mmHg 65%
    13:00 +32°C° 0.4 mm 1 mps 715 mmHg 61%
    14:00 +33°C° 0.4 mm 1 mps 714 mmHg 58%
    15:00 +32°C° 0.3 mm 1 mps 714 mmHg 61%
    16:00 +32°C° 0.3 mm 1 mps 714 mmHg 65%
    17:00 +31°C° 0.3 mm 1 mps 714 mmHg 68%
    18:00 +29°C° 0.6 mm 1 mps 715 mmHg 74%
    19:00 +27°C° 0.6 mm 1 mps 715 mmHg 80%
    20:00 +25°C° 0.6 mm 1 mps 716 mmHg 86%
    21:00 +24°C° 1.5 mm 1 mps 716 mmHg 88%
    22:00 +24°C° 1.5 mm 1 mps 716 mmHg 90%
    23:00 +24°C° 1.5 mm 1 mps 717 mmHg 91%

    Tomorrow, 20 July, Saturday

    Time Temperature Precipitation Wind Pressure Humidity
    00:00 +24°C° 1.7 mm 1 mps 716 mmHg 92%
    01:00 +21°C° 1.7 mm 0 mps 716 mmHg 93%
    02:00 +21°C° 1.7 mm 0 mps 716 mmHg 94%
    03:00 +21°C° 2.6 mm 0 mps 716 mmHg 95%
    04:00 +21°C° 2.6 mm 0 mps 716 mmHg 96%
    05:00 +21°C° 2.6 mm 0 mps 715 mmHg 96%
    06:00 +21°C° 0.8 mm 0 mps 716 mmHg 95%
    07:00 +22°C° 0.8 mm 0 mps 716 mmHg 94%
    08:00 +22°C° 0.8 mm 0 mps 717 mmHg 93%
    09:00 +24°C° 0 mm 0 mps 717 mmHg 87%
    10:00 +25°C° 0 mm 0 mps 717 mmHg 81%
    11:00 +27°C° 0 mm 0 mps 716 mmHg 75%
    12:00 +28°C° 0.5 mm 0 mps 716 mmHg 73%
    13:00 +31°C° 0.5 mm 1 mps 715 mmHg 70%
    14:00 +31°C° 0.5 mm 1 mps 715 mmHg 67%
    15:00 +31°C° 0.4 mm 1 mps 714 mmHg 70%
    16:00 +28°C° 0.4 mm 0 mps 714 mmHg 73%
    17:00 +27°C° 0.4 mm 0 mps 714 mmHg 75%
    18:00 +28°C° 0.4 mm 1 mps 714 mmHg 79%
    19:00 +26°C° 0.4 mm 1 mps 715 mmHg 83%
    20:00 +25°C° 0.4 mm 1 mps 715 mmHg 86%
    21:00 +25°C° 0.1 mm 1 mps 715 mmHg 87%
    22:00 +24°C° 0.1 mm 1 mps 716 mmHg 88%
    23:00 +24°C° 0.1 mm 1 mps 716 mmHg 89%

    Day after tomorrow, 21 July, Sunday

    Time Temperature Precipitation Wind Pressure Humidity
    00:00 +24°C° 0.1 mm 1 mps 716 mmHg 89%
    01:00 +22°C° 0.1 mm 0 mps 715 mmHg 90%
    02:00 +21°C° 0.1 mm 0 mps 715 mmHg 90%
    03:00 +21°C° 0 mm 0 mps 715 mmHg 90%
    04:00 +21°C° 0 mm 0 mps 715 mmHg 90%
    05:00 +21°C° 0 mm 0 mps 715 mmHg 90%
    06:00 +22°C° 0 mm 0 mps 716 mmHg 87%
    07:00 +23°C° 0 mm 0 mps 716 mmHg 85%
    08:00 +25°C° 0 mm 0 mps 717 mmHg 82%
    09:00 +26°C° 0.1 mm 0 mps 717 mmHg 76%
    10:00 +30°C° 0.1 mm 1 mps 717 mmHg 71%
    11:00 +31°C° 0.1 mm 1 mps 717 mmHg 65%
    12:00 +32°C° 0.1 mm 1 mps 717 mmHg 63%
    13:00 +32°C° 0.1 mm 1 mps 716 mmHg 60%
    14:00 +33°C° 0.1 mm 1 mps 716 mmHg 58%
    15:00 +32°C° 0.1 mm 1 mps 715 mmHg 62%
    16:00 +31°C° 0.1 mm 1 mps 715 mmHg 66%
    17:00 +31°C° 0.1 mm 1 mps 715 mmHg 70%
    18:00 +29°C° 0 mm 1 mps 715 mmHg 73%
    19:00 +27°C° 0 mm 1 mps 715 mmHg 76%
    20:00 +26°C° 0 mm 1 mps 716 mmHg 78%
    21:00 +25°C° 0 mm 1 mps 716 mmHg 77%
    22:00 +25°C° 0 mm 1 mps 716 mmHg 76%
    23:00 +24°C° 0 mm 1 mps 716 mmHg 75%

    22 July, Monday

    Time Temperature Precipitation Wind Pressure Humidity
    00:00 +24°C° 0 mm 1 mps 716 mmHg 75%
    01:00 +24°C° 0 mm 1 mps 716 mmHg 74%
    02:00 +24°C° 0 mm 1 mps 715 mmHg 74%
    03:00 +24°C° 0 mm 1 mps 715 mmHg 74%
    04:00 +23°C° 0 mm 1 mps 715 mmHg 75%
    05:00 +23°C° 0 mm 1 mps 715 mmHg 75%
    06:00 +23°C° 0 mm 0 mps 716 mmHg 73%
    07:00 +24°C° 0 mm 0 mps 717 mmHg 71%
    08:00 +26°C° 0 mm 0 mps 717 mmHg 68%
    09:00 +28°C° 0.1 mm 0 mps 717 mmHg 65%
    10:00 +31°C° 0.1 mm 1 mps 717 mmHg 61%
    11:00 +33°C° 0.1 mm 1 mps 717 mmHg 58%
    12:00 +33°C° 0.2 mm 1 mps 716 mmHg 56%
    13:00 +34°C° 0.2 mm 1 mps 716 mmHg 55%
    14:00 +34°C° 0.2 mm 1 mps 715 mmHg 53%
    15:00 +33°C° 0.3 mm 1 mps 715 mmHg 58%
    16:00 +32°C° 0.3 mm 1 mps 714 mmHg 63%
    17:00 +30°C° 0.3 mm 2 mps 714 mmHg 68%
    18:00 +29°C° 0.1 mm 2 mps 714 mmHg 70%
    19:00 +28°C° 0.1 mm 1 mps 715 mmHg 71%
    20:00 +26°C° 0.1 mm 1 mps 715 mmHg 72%
    21:00 +26°C° 0.4 mm 1 mps 716 mmHg 74%
    22:00 +26°C° 0.4 mm 1 mps 716 mmHg 75%
    23:00 +26°C° 0.4 mm 1 mps 716 mmHg 76%

    23 July, Tuesday

    Time Temperature Precipitation Wind Pressure Humidity
    00:00 +25°C° 0.3 mm 1 mps 716 mmHg 78%
    01:00 +25°C° 0.3 mm 1 mps 716 mmHg 80%
    02:00 +25°C° 0.3 mm 1 mps 715 mmHg 82%
    03:00 +24°C° 0.4 mm 1 mps 715 mmHg 83%
    04:00 +24°C° 0.4 mm 1 mps 716 mmHg 84%
    05:00 +22°C° 0.4 mm 0 mps 716 mmHg 85%
    06:00 +22°C° 1.3 mm 0 mps 716 mmHg 86%
    07:00 +24°C° 1.3 mm 1 mps 717 mmHg 87%
    08:00 +25°C° 1.3 mm 1 mps 717 mmHg 89%
    09:00 +25°C° 0.7 mm 1 mps 717 mmHg 87%
    10:00 +26°C° 0.7 mm 1 mps 717 mmHg 85%
    11:00 +26°C° 0.7 mm 1 mps 716 mmHg 83%
    12:00 +28°C° 0.2 mm 1 mps 716 mmHg 78%
    13:00 +29°C° 0.2 mm 1 mps 715 mmHg 73%
    14:00 +30°C° 0.2 mm 1 mps 715 mmHg 68%
    15:00 +29°C° 0.3 mm 1 mps 715 mmHg 71%
    16:00 +29°C° 0.3 mm 1 mps 714 mmHg 74%
    17:00 +27°C° 0.3 mm 0 mps 714 mmHg 77%
    18:00 +25°C° 0.2 mm 0 mps 715 mmHg 80%
    19:00 +24°C° 0.2 mm 0 mps 715 mmHg 82%
    20:00 +25°C° 0.2 mm 1 mps 716 mmHg 85%
    21:00 +25°C° 0.2 mm 1 mps 716 mmHg 86%
    22:00 +24°C° 0.2 mm 1 mps 716 mmHg 86%
    23:00 +24°C° 0.2 mm 1 mps 716 mmHg 87%

    24 July, Wednesday

    Time Temperature Precipitation Wind Pressure Humidity
    00:00 +24°C° 1.2 mm 1 mps 716 mmHg 89%
    01:00 +23°C° 1.2 mm 1 mps 716 mmHg 91%
    02:00 +23°C° 1.2 mm 1 mps 716 mmHg 93%
    03:00 +23°C° 1.3 mm 1 mps 716 mmHg 93%
    04:00 +21°C° 1.3 mm 0 mps 716 mmHg 94%
    05:00 +21°C° 1.3 mm 0 mps 716 mmHg 94%
    06:00 +22°C° 0.4 mm 0 mps 716 mmHg 92%
    07:00 +23°C° 0.4 mm 0 mps 717 mmHg 90%
    08:00 +24°C° 0.4 mm 0 mps 717 mmHg 87%
    09:00 +26°C° 0.6 mm 0 mps 717 mmHg 81%
    10:00 +27°C° 0.6 mm 0 mps 717 mmHg 76%
    11:00 +31°C° 0.6 mm 1 mps 717 mmHg 70%
    12:00 +32°C° 0.3 mm 1 mps 716 mmHg 66%
    13:00 +33°C° 0.3 mm 1 mps 715 mmHg 62%
    14:00 +33°C° 0.3 mm 1 mps 715 mmHg 58%
    15:00 +32°C° 0.7 mm 1 mps 715 mmHg 64%
    16:00 +31°C° 0.7 mm 1 mps 715 mmHg 70%
    17:00 +30°C° 0.7 mm 1 mps 715 mmHg 76%
    18:00 +28°C° 1.6 mm 1 mps 715 mmHg 82%
    19:00 +26°C° 1.6 mm 1 mps 715 mmHg 87%
    20:00 +25°C° 1.6 mm 1 mps 715 mmHg 92%
    21:00 +24°C° 1.5 mm 1 mps 716 mmHg 93%
    22:00 +24°C° 1.5 mm 1 mps 716 mmHg 93%
    23:00 +23°C° 1.5 mm 1 mps 716 mmHg 94%
    Show more